TimeEDT,TemperatureF,Dew PointF,Humidity,Sea Level PressureIn,VisibilityMPH,Wind Direction,Wind SpeedMPH,Gust SpeedMPH,PrecipitationIn,Events,Conditions,WindDirDegrees,DateUTC
12:52 AM,39.9,25.0,55,30.10,10.0,West,9.2,-,N/A,,Clear,270,2013-03-28 04:52:00
1:52 AM,41.0,25.0,53,30.11,10.0,West,10.4,-,N/A,,Mostly Cloudy,280,2013-03-28 05:52:00
2:52 AM,39.9,25.0,55,30.11,10.0,West,10.4,-,N/A,,Partly Cloudy,280,2013-03-28 06:52:00
3:52 AM,39.9,25.0,55,30.10,10.0,West,9.2,-,N/A,,Mostly Cloudy,270,2013-03-28 07:52:00
4:52 AM,37.0,25.0,62,30.10,10.0,WSW,9.2,-,N/A,,Scattered Clouds,250,2013-03-28 08:52:00
5:52 AM,39.0,26.1,60,30.10,10.0,West,10.4,-,N/A,,Mostly Cloudy,260,2013-03-28 09:52:00
6:52 AM,37.9,25.0,60,30.10,10.0,WSW,11.5,-,N/A,,Scattered Clouds,250,2013-03-28 10:52:00
7:52 AM,41.0,26.1,55,30.12,10.0,West,9.2,-,N/A,,Scattered Clouds,260,2013-03-28 11:52:00
8:52 AM,44.1,26.1,49,30.11,10.0,West,13.8,23.0,N/A,,Scattered Clouds,280,2013-03-28 12:52:00
9:52 AM,45.0,26.1,48,30.12,10.0,WNW,15.0,25.3,N/A,,Mostly Cloudy,290,2013-03-28 13:52:00
10:52 AM,48.0,28.0,46,30.12,10.0,West,13.8,23.0,N/A,,Mostly Cloudy,280,2013-03-28 14:52:00
11:52 AM,46.9,28.0,48,30.12,10.0,WNW,19.6,-,N/A,,Mostly Cloudy,300,2013-03-28 15:52:00
12:52 PM,48.0,28.0,46,30.12,10.0,NW,19.6,25.3,N/A,,Mostly Cloudy,310,2013-03-28 16:52:00
1:52 PM,48.0,28.0,46,30.11,10.0,WNW,17.3,-,N/A,,Mostly Cloudy,300,2013-03-28 17:52:00
2:52 PM,48.0,27.0,44,30.10,10.0,WNW,18.4,23.0,N/A,,Overcast,300,2013-03-28 18:52:00
3:52 PM,48.0,28.0,46,30.10,10.0,WNW,12.7,-,N/A,,Mostly Cloudy,300,2013-03-28 19:52:00
4:52 PM,48.0,26.1,42,30.12,10.0,WNW,16.1,-,N/A,,Mostly Cloudy,300,2013-03-28 20:52:00
5:52 PM,48.0,28.0,46,30.13,10.0,WNW,13.8,-,N/A,,Mostly Cloudy,290,2013-03-28 21:52:00
6:52 PM,48.0,27.0,44,30.15,10.0,WNW,17.3,-,N/A,,Mostly Cloudy,300,2013-03-28 22:52:00
7:52 PM,46.9,28.0,48,30.17,10.0,WNW,12.7,20.7,N/A,,Mostly Cloudy,290,2013-03-28 23:52:00
8:52 PM,46.0,28.0,50,30.19,10.0,WNW,12.7,-,N/A,,Overcast,290,2013-03-29 00:52:00
9:52 PM,45.0,28.0,52,30.20,10.0,WNW,11.5,-,N/A,,Mostly Cloudy,290,2013-03-29 01:52:00
10:52 PM,44.1,28.0,53,30.21,10.0,West,9.2,-,N/A,,Mostly Cloudy,270,2013-03-29 02:52:00
11:52 PM,43.0,28.0,56,30.22,10.0,West,10.4,-,N/A,,Partly Cloudy,270,2013-03-29 03:52:00